Weather History for Aurora, NE

Change the Weather History Date:

Sunday, May 5, 2013

  Actual Average Record
Temperature  
Mean Temperature 50 °F -  
Max Temperature 59 °F 71 °F 94 °F (1966)
Min Temperature 41 °F 47 °F 35 °F (1967)
Degree Days  
Heating Degree Days 15    
Moisture  
Dew Point 42 °F    
Average Humidity 81    
Maximum Humidity 93    
Minimum Humidity 60    
Precipitation  
Precipitation 0.00 in - - ()
Sea Level Pressure  
Sea Level Pressure 30.16 in    
Wind  
Wind Speed 12 mph (North)    
Max Wind Speed 16 mph    
Max Gust Speed 18 mph    
Visibility 10 miles    
Events      
Averages and records for this station are not official NWS values.
T = Trace of Precipitation, MM = Missing Value Source: NWS Daily Summary

Daily Weather History Graph

Daily Weather History Graph

Search for Another Location

Airport:

Trip Planner

Search our weather history database for the weather conditions in past years. The results will help you decide how hot, cold, wet, or windy it might be!

Date:

Astronomy

May. 05, 2013 Rise Set
Actual Time 6:24 AM CDT 8:33 PM CDT
Civil Twilight 5:54 AM CDT 9:03 PM CDT
Nautical Twilight 5:17 AM CDT 9:40 PM CDT
Astronomical Twilight 4:37 AM CDT 10:21 PM CDT
Moon 3:58 AM CDT (5/5) 4:32 PM CDT (5/5)
Length of Visible Light 15h 08m
Length of Day
14h 08m
Waning Crescent, 18% of the Moon is Illuminated
May 5
Waning Crescent
May 9
New
May 17
First Quarter
May 24
Full
May 31
Last Quarter

Hourly Weather History & Observations

Time (CDT) Temp. Windchill Dew Point Humidity Pressure Visibility Wind Dir Wind Speed Gust Speed Precip Events Conditions
12:15 AM 42.1 °F 35.2 °F 39.2 °F 90% 30.18 in 10.0 mi North 12.7 mph - N/A   Overcast
12:35 AM 41.9 °F 35.0 °F 39.2 °F 90% 30.18 in 10.0 mi North 12.7 mph - N/A   Overcast
12:55 AM 41.9 °F 34.3 °F 39.2 °F 90% 30.18 in 10.0 mi North 15.0 mph - N/A   Overcast
1:15 AM 42.1 °F 35.7 °F 39.2 °F 90% 30.18 in 10.0 mi North 11.5 mph - N/A   Overcast
1:35 AM 41.9 °F 35.0 °F 39.0 °F 90% 30.17 in 10.0 mi North 12.7 mph - N/A   Overcast
1:55 AM 41.9 °F 35.0 °F 39.2 °F 90% 30.17 in 10.0 mi North 12.7 mph 16.1 mph N/A   Overcast
2:15 AM 41.9 °F 35.0 °F 39.4 °F 91% 30.16 in 10.0 mi North 12.7 mph - N/A   Overcast
2:35 AM 41.9 °F 35.0 °F 39.4 °F 91% 30.15 in 10.0 mi North 12.7 mph - N/A   Overcast
2:55 AM 41.5 °F 34.6 °F 39.2 °F 91% 30.16 in 10.0 mi North 12.7 mph 16.1 mph N/A   Overcast
3:15 AM 41.5 °F 35.0 °F 39.2 °F 91% 30.16 in 10.0 mi North 11.5 mph - N/A   Overcast
3:35 AM 41.5 °F 34.2 °F 39.0 °F 91% 30.16 in 10.0 mi North 13.8 mph - N/A   Overcast
3:55 AM 41.5 °F 33.8 °F 39.2 °F 91% 30.16 in 10.0 mi NNW 15.0 mph - N/A   Overcast
4:15 AM 41.2 °F 34.1 °F 38.7 °F 91% 30.16 in 10.0 mi North 12.7 mph - N/A   Overcast
4:35 AM 41.0 °F 34.3 °F 38.5 °F 91% 30.16 in 10.0 mi North 11.5 mph - N/A   Overcast
4:55 AM 41.2 °F 34.1 °F 38.8 °F 91% 30.17 in 10.0 mi North 12.7 mph - N/A   Overcast
5:15 AM 41.4 °F 34.7 °F 39.2 °F 92% 30.17 in 10.0 mi North 11.5 mph - N/A   Overcast
5:55 AM 41.4 °F 35.2 °F 39.4 °F 93% 30.16 in 10.0 mi North 10.4 mph - N/A   Overcast
6:15 AM 41.4 °F 34.7 °F 39.2 °F 92% 30.17 in 10.0 mi NNW 11.5 mph - N/A   Overcast
6:35 AM 41.4 °F 34.3 °F 39.0 °F 91% 30.17 in 10.0 mi North 12.7 mph - N/A   Overcast
6:55 AM 41.4 °F 35.2 °F 39.2 °F 92% 30.18 in 10.0 mi NNW 10.4 mph - N/A   Overcast
7:15 AM 41.9 °F 35.0 °F 39.4 °F 91% 30.18 in 10.0 mi North 12.7 mph - N/A   Overcast
7:35 AM 41.9 °F 35.9 °F 39.6 °F 91% 30.19 in 10.0 mi North 10.4 mph - N/A   Overcast
7:55 AM 42.1 °F 35.2 °F 39.7 °F 91% 30.19 in 10.0 mi North 12.7 mph - N/A   Overcast
8:15 AM 42.4 °F 35.7 °F 40.1 °F 91% 30.19 in 10.0 mi North 12.7 mph - N/A   Overcast
8:35 AM 42.8 °F 35.8 °F 40.3 °F 91% 30.19 in 10.0 mi NNW 13.8 mph - N/A   Overcast
8:55 AM 43.3 °F 36.8 °F 40.3 °F 89% 30.19 in 10.0 mi North 12.7 mph - N/A   Overcast
9:15 AM 44.4 °F 38.2 °F 40.8 °F 87% 30.20 in 10.0 mi North 12.7 mph 18.4 mph N/A   Overcast
9:35 AM 45.0 °F 38.5 °F 40.8 °F 85% 30.19 in 10.0 mi North 13.8 mph - N/A   Overcast
9:55 AM 45.9 °F 39.4 °F 41.0 °F 83% 30.20 in 10.0 mi North 15.0 mph - N/A   Overcast
10:15 AM 46.4 °F 39.8 °F 41.0 °F 81% 30.20 in 10.0 mi North 16.1 mph - N/A   Overcast
10:35 AM 46.8 °F - 41.4 °F 81% 30.20 in 10.0 mi North 13.8 mph - N/A   Overcast
10:55 AM 47.5 °F - 41.7 °F 80% 30.20 in 10.0 mi North 13.8 mph - N/A   Overcast
11:15 AM 47.7 °F - 41.7 °F 80% 30.20 in 10.0 mi North 12.7 mph - N/A   Overcast
11:35 AM 48.0 °F - 41.9 °F 79% 30.20 in 10.0 mi North 15.0 mph 18.4 mph N/A   Overcast
11:55 AM 49.5 °F - 42.8 °F 78% 30.21 in 10.0 mi North 12.7 mph - N/A   Overcast
12:15 PM 48.7 °F - 42.6 °F 79% 30.20 in 10.0 mi North 12.7 mph 18.4 mph N/A   Overcast
12:35 PM 49.3 °F - 42.4 °F 77% 30.20 in 10.0 mi North 11.5 mph 16.1 mph N/A   Overcast
1:15 PM 50.9 °F - 43.2 °F 75% 30.19 in 10.0 mi North 11.5 mph 18.4 mph N/A   Overcast
1:35 PM 52.3 °F - 43.7 °F 72% 30.19 in 10.0 mi NNW 10.4 mph 17.3 mph N/A   Overcast
1:55 PM 52.5 °F - 43.3 °F 71% 30.19 in 10.0 mi NNW 12.7 mph - N/A   Overcast
2:15 PM 53.1 °F - 43.9 °F 71% 30.18 in 10.0 mi North 11.5 mph - N/A   Overcast
2:35 PM 54.0 °F - 44.2 °F 70% 30.18 in 10.0 mi North 10.4 mph - N/A   Overcast
2:55 PM 54.7 °F - 44.4 °F 68% 30.16 in 10.0 mi North 10.4 mph 17.3 mph N/A   Overcast
3:15 PM 55.6 °F - 44.4 °F 66% 30.16 in 10.0 mi North 12.7 mph 18.4 mph N/A   Mostly Cloudy
3:35 PM 56.8 °F - 45.1 °F 65% 30.15 in 10.0 mi North 13.8 mph - N/A   Mostly Cloudy
3:55 PM 57.0 °F - 45.0 °F 64% 30.14 in 10.0 mi North 13.8 mph 17.3 mph N/A   Mostly Cloudy
4:15 PM 57.2 °F - 45.1 °F 64% 30.13 in 10.0 mi North 13.8 mph - N/A   Scattered Clouds
4:35 PM 57.4 °F - 45.0 °F 63% 30.13 in 10.0 mi North 13.8 mph - N/A   Scattered Clouds
4:55 PM 57.9 °F - 45.0 °F 62% 30.13 in 10.0 mi NNE 8.1 mph 16.1 mph N/A   Scattered Clouds
5:15 PM 58.6 °F - 45.1 °F 61% 30.12 in 10.0 mi NNE 15.0 mph 18.4 mph N/A   Scattered Clouds
5:35 PM 58.5 °F - 45.0 °F 61% 30.12 in 10.0 mi North 10.4 mph - N/A   Scattered Clouds
5:55 PM 59.0 °F - 45.3 °F 60% 30.12 in 10.0 mi North 9.2 mph - N/A   Scattered Clouds
6:15 PM 58.1 °F - 44.8 °F 61% 30.12 in 10.0 mi NNE 8.1 mph - N/A   Scattered Clouds
6:35 PM 57.6 °F - 45.0 °F 63% 30.12 in 10.0 mi NNE 8.1 mph - N/A   Scattered Clouds
6:55 PM 58.1 °F - 45.3 °F 62% 30.12 in 10.0 mi NNE 6.9 mph - N/A   Overcast
7:15 PM 57.6 °F - 45.5 °F 64% 30.12 in 10.0 mi NNE 9.2 mph - N/A   Mostly Cloudy
7:35 PM 56.7 °F - 45.5 °F 66% 30.12 in 10.0 mi NE 10.4 mph - N/A   Scattered Clouds
7:55 PM 55.6 °F - 45.1 °F 68% 30.12 in 10.0 mi ENE 8.1 mph - N/A   Clear
8:15 PM 54.5 °F - 44.8 °F 70% 30.12 in 10.0 mi NE 6.9 mph - N/A   Clear
8:35 PM 51.6 °F - 44.1 °F 75% 30.12 in 10.0 mi NE 6.9 mph - N/A   Clear
8:55 PM 49.5 °F - 43.3 °F 79% 30.12 in 10.0 mi NE 8.1 mph - N/A   Clear
9:35 PM 47.3 °F - 42.8 °F 84% 30.13 in 10.0 mi NE 5.8 mph - N/A   Clear
9:55 PM 46.6 °F - 42.3 °F 85% 30.15 in 10.0 mi NNE 5.8 mph - N/A   Clear
10:15 PM 46.4 °F 43.5 °F 42.8 °F 87% 30.15 in 10.0 mi NNE 5.8 mph - N/A   Clear
10:35 PM 45.7 °F 42.7 °F 42.8 °F 90% 30.16 in 10.0 mi NE 5.8 mph - N/A   Clear
10:55 PM 45.5 °F 42.5 °F 42.4 °F 89% 30.16 in 10.0 mi NNE 5.8 mph - N/A   Scattered Clouds
11:15 PM 44.8 °F 41.6 °F 42.3 °F 91% 30.16 in 10.0 mi NNE 5.8 mph - N/A   Overcast
11:35 PM 45.7 °F 42.7 °F 43.0 °F 90% 30.16 in 10.0 mi NNE 5.8 mph - N/A   Overcast
11:55 PM 45.0 °F 41.2 °F 42.8 °F 92% 30.15 in 10.0 mi NNE 6.9 mph - N/A   Mostly Cloudy